DW9210 Weather Reports


time (UTC)temp
F
wind
direction
speed
knots
gust
knots
rain 1hr
in
rain 24hr
in
rain mn
in
humidity
%
barometer
mb
20260504232003 76 214 4.3 13.9 0.00 0.20 0.20 50 1006.7
20260504231524 76 211 4.3 13.9 0.00 0.20 0.20 49 1006.6
20260504231003 76 216 3.5 13.9 0.00 0.20 0.20 50 1006.8
20260504230503 76 218 3.5 13.9 0.00 0.20 0.20 50 1006.8
20260504230003 76 218 3.5 10.4 0.00 0.20 0.20 48 1006.8
20260504225503 76 217 3.5 10.4 0.00 0.20 0.20 50 1006.8
20260504225003 76 218 4.3 13.0 0.00 0.20 0.20 49 1006.9
20260504224503 76 224 5.2 13.0 0.00 0.20 0.20 49 1007.0
20260504224003 76 226 4.3 13.0 0.00 0.20 0.20 48 1007.1
20260504223503 76 223 4.3 11.3 0.00 0.20 0.20 47 1007.1
20260504223003 76 227 5.2 13.0 0.00 0.20 0.20 46 1007.2
20260504222503 77 226 5.2 13.0 0.00 0.20 0.20 48 1007.1
20260504222024 77 223 5.2 14.8 0.00 0.20 0.20 45 1007.2
20260504221503 78 223 5.2 14.8 0.00 0.20 0.20 45 1007.1
20260504221003 78 220 6.1 12.2 0.00 0.20 0.20 46 1007.2
20260504220524 78 220 6.1 13.0 0.00 0.20 0.20 45 1007.1
20260504220003 78 220 5.2 13.9 0.00 0.20 0.20 47 1007.2
20260504215503 77 221 5.2 14.8 0.00 0.20 0.20 48 1007.3
20260504215003 76 224 5.2 14.8 0.00 0.20 0.20 50 1007.3
20260504214503 76 229 4.3 13.0 0.00 0.20 0.20 50 1007.3
20260504214003 76 229 3.5 12.2 0.00 0.20 0.20 50 1007.3
20260504213503 77 235 3.5 11.3 0.00 0.20 0.20 49 1007.3
20260504213003 78 237 4.3 13.0 0.00 0.20 0.20 49 1007.3
20260504212503 78 225 4.3 13.0 0.00 0.20 0.20 46 1007.3
20260504212003 78 218 4.3 13.0 0.00 0.20 0.20 47 1007.2
20260504211524 78 223 4.3 11.3 0.00 0.20 0.20 48 1007.3
20260504211003 78 225 4.3 13.0 0.00 0.20 0.20 48 1007.3
20260504210524 79 220 4.3 13.0 0.00 0.20 0.20 48 1007.2
20260504210003 79 216 4.3 9.6 0.00 0.20 0.20 47 1007.2
20260504205503 80 221 3.5 7.8 0.00 0.20 0.20 47 1007.2
20260504205003 80 221 3.5 12.2 0.00 0.20 0.20 50 1007.3
20260504204503 79 223 3.5 12.2 0.00 0.20 0.20 49 1007.3
20260504204003 79 233 3.5 13.9 0.00 0.20 0.20 49 1007.3
20260504203503 78 230 4.3 13.9 0.00 0.20 0.20 50 1007.4
20260504203024 78 229 5.2 12.2 0.00 0.20 0.20 47 1007.4
20260504202503 78 232 6.1 16.5 0.00 0.20 0.20 47 1007.4
20260504202003 78 227 7.0 16.5 0.00 0.20 0.20 47 1007.5
20260504201503 78 222 5.2 14.8 0.00 0.20 0.20 50 1007.6
20260504201003 78 223 4.3 11.3 0.00 0.20 0.20 51 1007.7
20260504200503 78 226 4.3 13.9 0.00 0.20 0.20 49 1007.8
20260504200003 78 227 5.2 13.9 0.00 0.20 0.20 50 1007.9
20260504195503 78 224 7.0 15.6 0.00 0.20 0.20 54 1008.1
20260504195003 78 221 6.1 15.6 0.00 0.20 0.20 51 1008.1
20260504194503 77 222 6.1 13.0 0.00 0.20 0.20 51 1008.2
20260504194003 77 224 5.2 13.0 0.00 0.20 0.20 49 1008.3
20260504193503 78 223 3.5 11.3 0.00 0.20 0.20 51 1008.4
20260504193003 77 221 3.5 9.6 0.00 0.20 0.20 56 1008.4
20260504192503 77 214 5.2 15.6 0.00 0.20 0.20 55 1008.5
20260504192003 77 215 5.2 15.6 0.00 0.20 0.20 56 1008.5
20260504191503 77 218 4.3 12.2 0.00 0.20 0.20 54 1008.6
20260504191003 77 218 4.3 13.0 0.00 0.20 0.20 53 1008.7
20260504190503 77 223 4.3 13.0 0.00 0.20 0.20 57 1008.8
20260504190003 77 216 4.3 13.0 0.00 0.20 0.20 54 1008.7
20260504185503 76 214 4.3 13.0 0.00 0.20 0.20 55 1008.8
20260504185024 76 216 4.3 13.0 0.00 0.20 0.20 56 1008.7
20260504184503 76 211 4.3 13.9 0.00 0.20 0.20 54 1008.7
20260504184003 76 209 4.3 13.9 0.00 0.20 0.20 56 1008.7
20260504183503 75 208 5.2 12.2 0.00 0.20 0.20 62 1008.7
20260504183003 75 206 5.2 12.2 0.00 0.20 0.20 57 1008.7
20260504182503 75 203 4.3 12.2 0.00 0.20 0.20 57 1008.7
20260504182003 75 205 4.3 12.2 0.00 0.20 0.20 59 1008.8
20260504181503 75 213 4.3 10.4 0.00 0.20 0.20 59 1008.7
20260504181003 74 214 4.3 13.9 0.00 0.20 0.20 59 1008.8
20260504180503 74 217 5.2 15.6 0.00 0.20 0.20 56 1008.9
20260504180003 74 217 4.3 15.6 0.00 0.20 0.20 57 1008.8
20260504175503 74 218 3.5 11.3 0.00 0.20 0.20 60 1008.8
20260504175003 74 212 4.3 13.0 0.00 0.20 0.20 59 1008.9
20260504174503 73 209 5.2 13.0 0.00 0.20 0.20 58 1008.8
20260504174024 73 218 4.3 13.0 0.00 0.20 0.20 58 1008.9
20260504173503 73 217 4.3 14.8 0.00 0.20 0.20 60 1009.0
20260504173003 72 207 6.1 16.5 0.00 0.20 0.20 59 1009.1
20260504172503 72 213 6.1 16.5 0.00 0.20 0.20 56 1009.2
20260504172003 72 219 5.2 15.6 0.00 0.20 0.20 56 1009.2
20260504171524 72 218 4.3 15.6 0.00 0.20 0.20 60 1009.2
20260504171003 72 213 4.3 11.3 0.00 0.20 0.20 62 1009.2
20260504170503 71 208 4.3 11.3 0.00 0.20 0.20 61 1009.3
20260504151003 59 182 3.5 10.4 0.02 0.20 0.20 84 1009.8
20260504150503 57 178 3.5 11.3 0.04 0.20 0.20 87 1009.8
20260504141003 60 249 5.2 18.2 0.08 0.18 0.18 79 1010.1
20260504140524 60 259 6.1 15.6 0.06 0.16 0.16 77 1010.0
20260504130503 54 238 1.7 7.0 0.02 0.10 0.10 85 1011.5
20260504110503 52 178 2.6 7.0 0.02 0.08 0.08 89 1010.4
20260504100503 51 204 2.6 8.7 0.06 0.06 0.06 85 1011.5
20260504082003 54 192 1.7 6.1 0.00 0.00 0.00 65 1011.7
20260504081524 54 189 1.7 6.1 0.00 0.00 0.00 64 1011.7
20260504081003 54 192 1.7 6.1 0.00 0.00 0.00 64 1011.7
20260504080503 54 189 1.7 6.1 0.00 0.00 0.00 64 1011.9
20260504050503 54 179 1.7 5.2 0.00 0.00 0.00 60 1013.4
20260504050003 54 184 1.7 5.2 0.00 0.00 0.00 60 1013.4
20260504045503 54 181 1.7 5.2 0.00 0.00 0.00 60 1013.3
20260504045003 54 184 1.7 5.2 0.00 0.00 0.00 59 1013.4
20260504044503 54 191 2.6 5.2 0.00 0.00 0.00 59 1013.5
20260504044003 54 191 1.7 6.1 0.00 0.00 0.00 59 1013.4
20260504043503 54 193 1.7 6.1 0.00 0.00 0.00 58 1013.5
20260504043003 55 189 1.7 5.2 0.00 0.00 0.00 59 1013.5
20260504042503 55 179 1.7 5.2 0.00 0.00 0.00 57 1013.5
20260504042003 55 182 1.7 4.3 0.00 0.00 0.00 57 1013.5
20260504041503 55 188 1.7 4.3 0.00 0.00 0.00 56 1013.7
20260504041003 55 191 1.7 5.2 0.00 0.00 0.00 57 1013.8
20260504040503 56 196 1.7 5.2 0.00 0.00 0.00 55 1013.8
20260504040003 56 191 1.7 6.1 0.00 0.00 0.00 55 1013.9
20260504035503 56 188 1.7 6.1 0.00 0.00 0.00 55 1013.9
20260504035003 56 192 1.7 6.1 0.00 0.00 0.00 55 1014.1
20260504034503 56 191 1.7 5.2 0.00 0.00 0.00 56 1014.0
20260504034003 56 192 1.7 5.2 0.00 0.00 0.00 56 1014.1
20260504033503 56 191 1.7 5.2 0.00 0.00 0.00 56 1014.1
20260504033003 56 193 1.7 6.1 0.00 0.00 0.00 56 1014.1
20260504032503 56 196 1.7 7.0 0.00 0.00 0.00 57 1013.9
20260504032003 56 193 2.6 7.0 0.00 0.00 0.00 57 1013.8
20260504031503 56 188 1.7 4.3 0.00 0.00 0.00 57 1013.9
20260504031003 55 191 1.7 4.3 0.00 0.00 0.00 58 1014.0
20260504030524 55 196 1.7 5.2 0.00 0.00 0.00 59 1014.3
20260504030003 55 193 1.7 5.2 0.00 0.00 0.00 58 1014.4
20260504025524 55 192 1.7 5.2 0.00 0.00 0.00 59 1014.4
20260504025003 55 190 1.7 4.3 0.00 0.00 0.00 58 1014.5
20260504024503 55 194 0.9 3.5 0.00 0.00 0.00 59 1014.5
20260504024003 55 192 0.9 3.5 0.00 0.00 0.00 58 1014.5
20260504023503 55 192 0.9 3.5 0.00 0.00 0.00 58 1014.5
20260504023003 55 195 0.9 3.5 0.00 0.00 0.00 58 1014.6
20260504022503 55 189 0.9 2.6 0.00 0.00 0.00 57 1014.7
20260504022003 56 173 0.0 1.7 0.00 0.00 0.00 57 1014.8
20260504021503 56 165 0.9 1.7 0.00 0.00 0.00 58 1014.7
20260504021003 56 168 0.9 2.6 0.00 0.00 0.00 57 1014.7
20260504020503 56 175 0.0 2.6 0.00 0.00 0.00 56 1014.6
20260504020003 56 177 0.0 1.7 0.00 0.00 0.00 56 1014.6
20260504015503 56 193 0.9 1.7 0.00 0.00 0.00 55 1014.6
20260504015003 56 193 0.9 2.6 0.00 0.00 0.00 55 1014.6
20260504014503 56 191 0.9 2.6 0.00 0.00 0.00 55 1014.5
20260504014003 56 210 0.9 2.6 0.00 0.00 0.00 55 1014.5
20260504013524 56 215 0.9 3.5 0.00 0.00 0.00 54 1014.5
20260504013003 57 216 0.9 3.5 0.00 0.00 0.00 54 1014.4
20260504012503 57 226 0.9 3.5 0.00 0.00 0.00 54 1014.4
20260504012003 57 222 0.9 3.5 0.00 0.00 0.00 53 1014.2
20260504011524 57 206 0.9 3.5 0.00 0.00 0.00 54 1014.0
20260504011024 57 206 1.7 4.3 0.00 0.00 0.00 52 1014.1
20260504010503 57 215 1.7 4.3 0.00 0.00 0.00 53 1014.0
20260504010024 57 216 0.9 4.3 0.00 0.00 0.00 52 1013.9
20260504005503 57 203 0.9 6.1 0.00 0.00 0.00 52 1013.8
20260504005003 58 200 1.7 6.1 0.00 0.00 0.00 51 1013.7
20260504004503 58 201 1.7 5.2 0.00 0.00 0.00 51 1013.6
20260504004003 58 200 1.7 5.2 0.00 0.00 0.00 50 1013.6
20260504003503 58 193 1.7 5.2 0.00 0.00 0.00 50 1013.6
20260504003003 59 191 1.7 4.3 0.00 0.00 0.00 49 1013.5
20260504002503 59 196 1.7 4.3 0.00 0.00 0.00 48 1013.5
20260504002003 59 195 1.7 6.1 0.00 0.00 0.00 47 1013.6
20260504001503 59 200 1.7 6.1 0.00 0.00 0.00 47 1013.6
20260504001003 60 212 1.7 6.1 0.00 0.00 0.00 47 1013.7
20260504000503 60 208 1.7 5.2 0.00 0.00 0.00 47 1013.8
20260504000003 60 203 1.7 4.3 0.00 0.00 0.00 46 1013.9
20260503235524 60 203 1.7 5.2 0.00 0.00 0.00 47 1013.8
20260503235003 61 200 0.9 5.2 0.00 0.00 0.00 45 1013.7
20260503234503 61 202 0.9 5.2 0.00 0.00 0.00 46 1013.9
20260503234024 61 206 0.9 5.2 0.00 0.00 0.00 45 1014.1
20260503233503 61 222 1.7 4.3 0.00 0.00 0.00 46 1014.1
20260503233003 61 226 1.7 4.3 0.00 0.00 0.00 43 1014.1
20260503232503 61 223 1.7 4.3 0.00 0.00 0.00 43 1014.1
20260503232024 61 231 2.6 6.1 0.00 0.00 0.00 44 1014.3